Starlink 32235

operational
NORAD ID: 60739 Int'l Des: 2024-152 Owner: SPXS Country: US Constellation: starlink
LEOCIRCULAR

Über Starlink 32235

Beschreibung wird geladen...

Live-Position

3D-Globus wird geladen...

Nächste Überflüge

Höhenverlauf

Altitude vs Time

uPlot chart will show altitude changes over time

Zweizeiliger Elementsatz

1 60739U 24152V 26037.04681589 .00000640 00000-0 33739-4 0 9997
2 60739 53.1602 55.5875 0001836 102.7211 257.3995 15.30193352 81956
Epoch: 6. Feb. 2026 • Age: 27 hours

Aktueller Status

Höhe 478.1 km
Geschwindigkeit 7.63 km/s
Subsatellitenpunkt -8.30°S, 148.99°W
Startdatum 28. Aug. 2024
Alter 1.4 years
Typ internet

Technische Details

Klassifizierung Payload
Masse 730.00 kg
Trockenmasse 700.00 kg
Gesamtmasse 730.00 kg
Länge 0.30 m
Durchmesser 4.10 m
Spannweite 29.00 m
Form Box + pan
Hersteller SPXS
Bus-Typ Starlink V2M
Phasenstatus In Orbit
Besitzer/Staat SPXS/US

Große Konstellationen

Loading constellations...